This is the latest recevied weather packets stored in our database for station/object WC4PEM-9. If no packets are shown the sender has not sent any weather packets the latest 10 day(s).
| Time | Temp. | Humidity | Pressure | Rain* | Wind** | Luminosity | Snow |
|---|---|---|---|---|---|---|---|
| 1777408293 | 31.11° C | 57% | 1016.9 hPa | 0 mm | - | - | - |
| 1777408130 | 31.11° C | 57% | 1016.9 hPa | 0 mm | - | - | - |
| 1777407983 | 30.56° C | 58% | 1017.3 hPa | 0 mm | - | - | - |
| 1777407830 | 30.56° C | 58% | 1017.3 hPa | 0 mm | - | - | - |
| 1777407637 | 30.56° C | 59% | 1017.3 hPa | 0 mm | - | - | - |
| 1777407530 | 30.56° C | 59% | 1017.3 hPa | 0 mm | - | - | - |
| 1777407393 | 30° C | 59% | 1017.5 hPa | 0 mm | - | - | - |
| 1777407230 | 30° C | 59% | 1017.5 hPa | 0 mm | - | - | - |
| 1777407117 | 29.44° C | 58% | 1017.6 hPa | 0 mm | - | - | - |
| 1777406930 | 29.44° C | 58% | 1017.6 hPa | 0 mm | - | - | - |
| 1777406630 | 29.44° C | 59% | 1017.7 hPa | 0 mm | - | - | - |
| 1777406489 | 30° C | 58% | 1017.8 hPa | 0 mm | - | - | - |
| 1777406330 | 30° C | 58% | 1017.8 hPa | 0 mm | - | - | - |
| 1777406296 | 30° C | 58% | 1017.6 hPa | 0 mm | - | - | - |
| 1777406030 | 30° C | 58% | 1017.6 hPa | 0 mm | - | - | - |
| 1777405730 | 29.44° C | 61% | 1017.8 hPa | 0 mm | - | - | - |
| 1777405621 | 28.89° C | 61% | 1017.9 hPa | 0 mm | - | - | - |
| 1777405430 | 28.89° C | 61% | 1017.9 hPa | 0 mm | - | - | - |
| 1777405130 | 28.89° C | 60% | 1018.2 hPa | 0 mm | - | - | - |
| 1777404830 | 29.44° C | 59% | 1018.2 hPa | 0 mm | - | - | - |
| 1777404715 | 29.44° C | 60% | 1018.2 hPa | 0 mm | - | - | - |
| 1777404530 | 29.44° C | 60% | 1018.2 hPa | 0 mm | - | - | - |
| 1777404411 | 29.44° C | 58% | 1018.1 hPa | 0 mm | - | - | - |
| 1777404230 | 29.44° C | 58% | 1018.1 hPa | 0 mm | - | - | - |
| 1777404116 | 29.44° C | 60% | 1018.1 hPa | 0 mm | - | - | - |
* Rain latest hour (hover to see other rain measurements)
** Current wind speed in m/s (hover to see current wind gust speed)